Orbital Elements at Epoch 2459200.5 (2020-Dec-17.0) TDB
Reference: JPL 21 (heliocentric ecliptic J2000)
Element | Value | Uncertainty (1-sigma) | Units |
e | .1594141495812855 | 3.2461e-08 | |
a | 2.287576584086306 | 9.0484e-09 | au |
q | 1.922904508332126 | 7.4472e-08 | au |
i | 8.064882991669748 | 3.905e-06 | deg |
node | 179.3923197926127 | 3.0627e-05 | deg |
peri | 152.7401022611331 | 3.3695e-05 | deg |
M | 89.24675534991081 | 1.4957e-05 | deg |
tp | 2458887.206181820454 (2020-Feb-07.70618182) | 5.1959e-05 | TDB |
period | 1263.752100593865 3.46 | 7.4981e-06 2.053e-08 | d yr |
n | .2848659953410388 | 1.6902e-09 | deg/d |
Q | 2.652248659840487 | 1.0491e-08 | au |
|
| | Orbit Determination Parameters
Additional Information
|